Location: Ceske Budejovice
(48.9830°N, 14.4670°E)
Time: 19:21:07
(UTC+02:00)

ISS - Pass Details

Date: 10 July 2022
Orbit: 412 x 419 km, 51.6° (Epoch: 09 August)

Event Time Altitude Azimuth Distance (km) Brightness Sun altitude
Rises 04:08:39 0° 289° (WNW) 2,363 -0.2 -8.1°
Reaches altitude 10° 04:10:45 10° 290° (WNW) 1,499 -1.2 -7.9°
Maximum altitude 04:14:07 82° 19° (NNE) 428 -3.6 -7.5°
Drops below altitude 10° 04:17:30 10° 107° (ESE) 1,499 -0.6 -7.2°
Sets 04:19:35 0° 108° (ESE) 2,363 0.4 -6.9°
